"Period start","avg(HW err(1)/warn(2) (#))","avg(Visibility (m))","avg(Weather code (#))","avg(Precip intensity (mm/h))","min(HW err(1)/warn(2) (#))","max(HW err(1)/warn(2) (#))","std(HW err(1)/warn(2) (#))","med(HW err(1)/warn(2) (#))","min(Visibility (m))","max(Visibility (m))","std(Visibility (m))","med(Visibility (m))","min(Weather code (#))","max(Weather code (#))","std(Weather code (#))","med(Weather code (#))","min(Precip intensity (mm/h))","max(Precip intensity (mm/h))","std(Precip intensity (mm/h))","med(Precip intensity (mm/h))"
2017-07-04 00:00:00,2,49816,0,0.00,0,2,1,2,49273,50000,285,50000,0,0,0,0,0.00,0.00,0.00,0.00
2017-07-04 00:10:00,2,47964,0,0.00,2,2,0,2,42516,50000,2819,50000,0,0,0,0,0.00,0.00,0.00,0.00
2017-07-04 00:20:00,2,49032,0,0.00,2,2,0,2,44181,50000,1838,50000,0,0,0,0,0.00,0.00,0.00,0.00
2017-07-04 00:30:00,2,48064,0,0.00,2,2,0,2,40115,50000,3253,50000,0,0,0,0,0.00,0.00,0.00,0.00
2017-07-04 00:40:00,2,48326,0,0.00,2,2,0,2,45137,50000,1866,49318,0,0,0,0,0.00,0.00,0.00,0.00
2017-07-04 00:50:00,2,46225,0,0.00,2,2,0,2,34778,50000,4971,49294,0,0,0,0,0.00,0.00,0.00,0.00
2017-07-04 01:00:00,2,47228,0,0.00,2,2,0,2,37115,50000,4491,50000,0,0,0,0,0.00,0.00,0.00,0.00
2017-07-04 01:10:00,2,46929,0,0.00,0,2,1,2,39668,50000,4044,49969,0,0,0,0,0.00,0.00,0.00,0.00
2017-07-04 01:20:00,0,48531,0,0.00,0,0,0,0,43095,50000,2253,49819,0,0,0,0,0.00,0.00,0.00,0.00
2017-07-04 01:30:00,0,49102,0,0.00,0,0,0,0,46205,50000,1249,49821,0,0,0,0,0.00,0.00,0.00,0.00
2017-07-04 01:40:00,0,49061,0,0.00,0,0,0,0,42075,50000,2369,50000,0,0,0,0,0.00,0.00,0.00,0.00
2017-07-04 01:50:00,0,48611,0,0.00,0,0,0,0,44409,50000,2041,49818,0,0,0,0,0.00,0.00,0.00,0.00
2017-07-04 02:00:00,0,47402,0,0.00,0,0,0,0,41839,50000,2959,49076,0,0,0,0,0.00,0.00,0.00,0.00
2017-07-04 02:10:00,0,47923,0,0.00,0,0,0,0,40792,50000,2866,49326,0,0,0,0,0.00,0.00,0.00,0.00
2017-07-04 02:20:00,0,49162,0,0.00,0,0,0,0,46280,50000,1375,50000,0,0,0,0,0.00,0.00,0.00,0.00
2017-07-04 02:30:00,0,41927,0,0.00,0,0,0,0,25615,50000,7499,41726,0,0,0,0,0.00,0.00,0.00,0.00
2017-07-04 02:40:00,0,49860,0,0.00,0,0,0,0,49192,50000,284,50000,0,0,0,0,0.00,0.00,0.00,0.00
2017-07-04 02:50:00,0,49450,0,0.00,0,0,0,0,44563,50000,1629,50000,0,0,0,0,0.00,0.00,0.00,0.00
2017-07-04 03:00:00,0,48953,0,0.00,0,0,0,0,45496,50000,1581,50000,0,0,0,0,0.00,0.00,0.00,0.00
2017-07-04 03:10:00,0,48781,0,0.00,0,0,0,0,45517,50000,1651,50000,0,0,0,0,0.00,0.00,0.00,0.00
2017-07-04 03:20:00,0,48890,0,0.00,0,0,0,0,44636,50000,1657,50000,0,0,0,0,0.00,0.00,0.00,0.00
2017-07-04 03:30:00,0,48554,0,0.00,0,0,0,0,45228,50000,1607,49100,0,0,0,0,0.00,0.00,0.00,0.00
2017-07-04 03:40:00,0,47019,0,0.00,0,0,0,0,38451,50000,4020,49872,0,0,0,0,0.00,0.00,0.00,0.00
2017-07-04 03:50:00,0,50000,0,0.00,0,0,0,0,50000,50000,0,50000,0,0,0,0,0.00,0.00,0.00,0.00
2017-07-04 04:00:00,0,49776,0,0.00,0,0,0,0,48535,50000,474,50000,0,0,0,0,0.00,0.00,0.00,0.00
2017-07-04 04:10:00,0,47437,0,0.00,0,0,0,0,40715,50000,3023,48420,0,0,0,0,0.00,0.00,0.00,0.00
2017-07-04 04:20:00,0,49938,0,0.00,0,0,0,0,49382,50000,185,50000,0,0,0,0,0.00,0.00,0.00,0.00
2017-07-04 04:30:00,0,49805,0,0.00,0,0,0,0,48050,50000,585,50000,0,0,0,0,0.00,0.00,0.00,0.00
2017-07-04 04:40:00,0,49796,0,0.00,0,0,0,0,47958,50000,613,50000,0,0,0,0,0.00,0.00,0.00,0.00
2017-07-04 04:50:00,0,49270,0,0.00,0,0,0,0,45734,50000,1487,50000,0,0,0,0,0.00,0.00,0.00,0.00
2017-07-04 05:00:00,0,48441,0,0.00,0,0,0,0,43548,50000,2267,50000,0,0,0,0,0.00,0.00,0.00,0.00
2017-07-04 05:10:00,0,49828,0,0.00,0,0,0,0,48802,50000,364,50000,0,0,0,0,0.00,0.00,0.00,0.00
2017-07-04 05:20:00,0,49699,0,0.00,0,0,0,0,46986,50000,904,50000,0,0,0,0,0.00,0.00,0.00,0.00
2017-07-04 05:30:00,0,49926,0,0.00,0,0,0,0,49258,50000,223,50000,0,0,0,0,0.00,0.00,0.00,0.00
2017-07-04 05:40:00,0,49990,0,0.00,0,0,0,0,49896,50000,31,50000,0,0,0,0,0.00,0.00,0.00,0.00
2017-07-04 05:50:00,0,50000,0,0.00,0,0,0,0,50000,50000,0,50000,0,0,0,0,0.00,0.00,0.00,0.00
2017-07-04 06:00:00,0,49612,0,0.00,0,0,0,0,47177,50000,870,50000,0,0,0,0,0.00,0.00,0.00,0.00
2017-07-04 06:10:00,0,46053,23,0.27,0,0,0,0,27405,50000,7353,50000,0,61,28,0,0.00,1.15,0.42,0.00
2017-07-04 06:20:00,0,25188,60,2.04,0,0,0,0,20552,30789,3363,25161,52,61,3,61,1.25,2.75,0.48,2.08
2017-07-04 06:30:00,0,23197,61,1.73,0,0,0,0,19148,27419,2807,24040,61,61,0,61,1.05,3.25,0.61,1.55
2017-07-04 06:40:00,0,18819,54,1.52,0,2,1,0,15301,22182,2256,18876,52,61,4,52,0.65,3.25,0.79,1.43
2017-07-04 06:50:00,0,19517,61,1.94,0,0,0,0,15214,31537,4251,18827,61,61,0,61,0.70,3.25,0.66,1.88
2017-07-04 07:00:00,0,30890,61,1.60,0,0,0,0,21408,45452,6275,31208,61,61,0,61,0.40,3.50,0.84,1.73
2017-07-04 07:10:00,0,32770,61,3.30,0,0,0,0,21322,47066,8083,29772,61,61,0,61,0.55,6.25,1.61,2.70
2017-07-04 07:20:00,0,36030,56,1.41,0,0,0,0,21723,50000,9276,36466,52,61,4,56,0.40,2.40,0.62,1.35
2017-07-04 07:30:00,0,23546,58,2.55,0,0,0,0,19359,34984,4337,22734,52,61,4,61,1.35,4.00,0.96,2.30
2017-07-04 07:40:00,0,27534,56,3.48,0,0,0,0,17872,33782,4233,28594,52,61,4,56,1.55,9.75,2.64,2.25
2017-07-04 07:50:00,0,19130,61,7.99,0,0,0,0,15542,24069,2560,18716,61,62,0,61,3.95,14.20,3.84,5.93
2017-07-04 08:00:00,0,15886,61,6.37,0,0,0,0,12344,20145,2147,15794,61,62,0,61,4.40,10.25,1.72,6.30
2017-07-04 08:10:00,0,17130,61,8.22,0,0,0,0,14175,23647,3002,15376,61,62,0,61,6.05,12.55,1.92,7.73
2017-07-04 08:20:00,0,16173,62,14.13,0,0,0,0,12407,18989,2166,16360,61,62,0,62,3.80,25.30,7.39,14.22
2017-07-04 08:30:00,0,14288,62,12.50,0,0,0,0,12522,15692,926,14434,61,62,0,62,6.90,19.10,3.78,12.20
2017-07-04 08:40:00,0,14784,61,5.62,0,0,0,0,12634,18370,1508,14451,61,62,0,61,3.55,10.30,2.17,4.72
2017-07-04 08:50:00,0,14088,61,10.03,0,0,0,0,12760,15762,913,13956,61,62,0,61,3.55,26.10,6.48,8.22
2017-07-04 09:00:00,0,12058,61,8.38,0,0,0,0,10092,13170,940,12044,61,62,0,61,3.25,12.50,2.97,9.10
2017-07-04 09:10:00,0,13532,61,6.55,0,0,0,0,10777,15288,1241,13623,61,62,0,61,3.90,13.00,2.75,5.72
2017-07-04 09:20:00,0,12839,61,8.53,0,0,0,0,10843,14954,1142,12797,61,62,0,61,3.25,15.80,3.52,8.32
2017-07-04 09:30:00,0,14994,61,6.57,0,0,0,0,12157,17870,1936,14521,61,62,0,61,4.45,10.65,1.99,5.85
2017-07-04 09:40:00,0,14322,61,3.84,0,0,0,0,11736,21025,2541,13524,61,61,0,61,2.50,6.65,1.16,3.35
2017-07-04 09:50:00,0,13984,54,2.92,0,0,0,0,11464,17957,2017,13540,52,61,4,52,1.30,4.15,0.90,2.97
2017-07-04 10:00:00,0,22225,56,1.48,0,0,0,0,15501,32706,5763,19821,52,61,4,52,0.55,2.90,0.64,1.33
2017-07-04 10:10:00,0,32430,59,1.31,0,0,0,0,20597,46033,7289,32130,52,61,4,61,0.80,2.20,0.41,1.30
2017-07-04 10:20:00,0,14038,52,1.06,0,0,0,0,10648,20732,3163,12938,52,52,0,52,0.60,1.85,0.36,1.00
2017-07-04 10:30:00,0,9048,60,3.40,0,0,0,0,7221,10341,805,9016,52,61,3,61,1.45,7.40,1.80,2.92
2017-07-04 10:40:00,0,6539,61,6.65,0,0,0,0,5711,7910,620,6652,61,62,0,61,1.95,10.80,2.60,6.35
2017-07-04 10:50:00,0,7614,62,10.95,0,0,0,0,5805,9877,1465,7210,61,62,0,62,4.85,16.85,3.83,10.25
2017-07-04 11:00:00,0,11002,62,15.54,0,0,0,0,9813,12379,642,10854,61,62,0,62,9.35,22.70,4.56,16.12
2017-07-04 11:10:00,0,12020,62,19.48,0,0,0,0,10001,13987,1315,12022,62,62,0,62,11.55,30.10,6.48,17.27
2017-07-04 11:20:00,0,10262,62,21.70,0,0,0,0,8826,14727,1761,9604,62,62,0,62,11.65,31.60,5.49,20.32
2017-07-04 11:30:00,0,11624,62,11.29,0,0,0,0,9667,15214,1667,10978,61,62,0,62,3.65,19.65,4.80,10.32
2017-07-04 11:40:00,0,10403,62,17.83,0,0,0,0,7043,17769,3184,9609,61,62,0,62,7.80,32.65,8.97,16.17
2017-07-04 11:50:00,0,14675,62,17.02,0,0,0,0,11089,18150,2285,14228,61,62,0,62,8.30,27.45,5.50,17.02
2017-07-04 12:00:00,0,15786,62,12.04,0,0,0,0,13091,20349,1823,15387,61,62,0,62,7.35,20.85,3.70,11.65
2017-07-04 12:10:00,0,19648,61,6.12,0,0,0,0,13778,26042,4192,19125,61,62,0,61,2.90,13.80,3.03,5.57
2017-07-04 12:20:00,0,23659,61,6.47,0,0,0,0,15836,31166,5124,24199,61,62,0,61,3.05,10.05,2.53,6.17
2017-07-04 12:30:00,0,12211,62,16.78,0,0,0,0,6901,17280,3367,12140,62,62,0,62,10.35,36.60,7.47,14.77
2017-07-04 12:40:00,0,9984,62,20.41,0,0,0,0,8384,12103,1336,9554,62,62,0,62,10.85,35.25,6.67,18.95
2017-07-04 12:50:00,0,12697,62,12.35,0,0,0,0,9775,16182,1953,12446,61,62,0,62,5.85,22.55,4.85,11.20
2017-07-04 13:00:00,0,13570,62,10.19,0,0,0,0,11878,14909,948,13355,61,62,0,62,7.25,15.50,2.83,9.77
2017-07-04 13:10:00,0,13916,61,5.13,0,0,0,0,12115,15597,1244,13592,61,62,0,61,0.40,19.85,5.87,2.55
2017-07-04 13:20:00,0,17652,58,2.40,0,0,0,0,13663,25667,3381,17994,52,61,4,61,0.20,9.15,2.42,1.83
2017-07-04 13:30:00,0,5313,56,1.69,0,0,0,0,2985,10822,2591,4203,52,61,4,52,0.85,2.45,0.50,1.52
2017-07-04 13:40:00,0,3582,52,2.79,0,0,0,0,2965,4698,467,3482,52,52,0,52,1.85,5.25,1.05,2.38
2017-07-04 13:50:00,0,4077,52,2.58,0,0,0,0,3570,4345,218,4082,52,52,0,52,1.70,3.70,0.75,2.30
2017-07-04 14:00:00,0,4313,52,2.85,0,0,0,0,3870,5026,303,4305,52,52,0,52,1.70,3.90,0.72,2.88
2017-07-04 14:10:00,0,4606,52,4.33,0,0,0,0,3911,5759,676,4306,52,53,0,52,2.40,7.40,1.64,3.62
2017-07-04 14:20:00,0,5023,52,3.95,0,0,0,0,4140,6118,668,4884,52,53,0,52,2.30,5.50,0.97,4.28
2017-07-04 14:30:00,0,4401,53,4.79,0,0,0,0,3704,4849,352,4470,53,53,0,53,3.35,6.40,0.88,4.70
2017-07-04 14:40:00,0,8559,52,1.46,0,0,0,0,6583,9803,976,8587,52,52,0,52,0.95,2.00,0.34,1.35
2017-07-04 14:50:00,0,12774,41,0.20,0,0,0,0,8472,22942,4308,11382,0,52,21,51,0.00,0.40,0.15,0.23
2017-07-04 15:00:00,0,12778,0,0.00,0,0,0,0,8615,17161,2419,12517,0,0,0,0,0.00,0.00,0.00,0.00
2017-07-04 15:10:00,0,13202,0,0.00,0,0,0,0,8499,17715,3363,13631,0,0,0,0,0.00,0.00,0.00,0.00
2017-07-04 15:20:00,0,7686,48,0.25,0,0,0,0,5381,9453,1236,7670,0,61,16,51,0.00,0.70,0.21,0.15
2017-07-04 15:30:00,0,9690,58,0.11,0,0,0,0,6623,11154,1314,9992,51,61,5,61,0.05,0.15,0.04,0.10
2017-07-04 15:40:00,0,9652,22,0.12,0,0,0,0,6702,13686,2081,9462,0,61,24,10,0.00,0.55,0.21,0.00
2017-07-04 15:50:00,0,11189,52,0.35,0,0,0,0,6513,17268,2953,11294,51,52,0,52,0.00,0.70,0.22,0.38
2017-07-04 16:00:00,0,23453,0,0.00,0,0,0,0,12204,43462,11314,19507,0,0,0,0,0.00,0.00,0.00,0.00
2017-07-04 16:10:00,0,49312,0,0.00,0,0,0,0,43124,50000,2063,50000,0,0,0,0,0.00,0.00,0.00,0.00
2017-07-04 16:20:00,0,20875,2,0.00,0,0,0,0,1804,50000,20101,12608,0,10,4,0,0.00,0.00,0.00,0.00
2017-07-04 16:30:00,0,30154,10,0.00,0,0,0,0,6260,43622,11209,32870,10,10,0,10,0.00,0.00,0.00,0.00
2017-07-04 16:40:00,0,49992,1,0.00,0,0,0,0,49922,50000,23,50000,0,10,3,0,0.00,0.00,0.00,0.00
2017-07-04 16:50:00,0,49594,0,0.00,0,0,0,0,45944,50000,1217,50000,0,0,0,0,0.00,0.00,0.00,0.00
2017-07-04 17:00:00,0,50000,0,0.00,0,0,0,0,50000,50000,0,50000,0,0,0,0,0.00,0.00,0.00,0.00
2017-07-04 17:10:00,0,50000,0,0.00,0,0,0,0,50000,50000,0,50000,0,0,0,0,0.00,0.00,0.00,0.00
2017-07-04 17:20:00,0,50000,0,0.00,0,0,0,0,50000,50000,0,50000,0,0,0,0,0.00,0.00,0.00,0.00
2017-07-04 17:30:00,0,50000,0,0.00,0,0,0,0,50000,50000,0,50000,0,0,0,0,0.00,0.00,0.00,0.00
2017-07-04 17:40:00,0,50000,0,0.00,0,0,0,0,50000,50000,0,50000,0,0,0,0,0.00,0.00,0.00,0.00
2017-07-04 17:50:00,0,50000,0,0.00,0,0,0,0,50000,50000,0,50000,0,0,0,0,0.00,0.00,0.00,0.00
2017-07-04 18:00:00,0,50000,0,0.00,0,0,0,0,50000,50000,0,50000,0,0,0,0,0.00,0.00,0.00,0.00
2017-07-04 18:10:00,0,50000,0,0.00,0,0,0,0,50000,50000,0,50000,0,0,0,0,0.00,0.00,0.00,0.00
2017-07-04 18:20:00,0,50000,0,0.00,0,0,0,0,50000,50000,0,50000,0,0,0,0,0.00,0.00,0.00,0.00
2017-07-04 18:30:00,0,50000,0,0.00,0,0,0,0,50000,50000,0,50000,0,0,0,0,0.00,0.00,0.00,0.00
2017-07-04 18:40:00,0,50000,0,0.00,0,0,0,0,50000,50000,0,50000,0,0,0,0,0.00,0.00,0.00,0.00
2017-07-04 18:50:00,0,50000,0,0.00,0,0,0,0,50000,50000,0,50000,0,0,0,0,0.00,0.00,0.00,0.00
2017-07-04 19:00:00,0,50000,0,0.00,0,0,0,0,50000,50000,0,50000,0,0,0,0,0.00,0.00,0.00,0.00
2017-07-04 19:10:00,0,50000,0,0.00,0,0,0,0,50000,50000,0,50000,0,0,0,0,0.00,0.00,0.00,0.00
2017-07-04 19:20:00,0,50000,0,0.00,0,0,0,0,50000,50000,0,50000,0,0,0,0,0.00,0.00,0.00,0.00
2017-07-04 19:30:00,0,49952,0,0.00,0,0,0,0,49515,50000,146,50000,0,0,0,0,0.00,0.00,0.00,0.00
2017-07-04 19:40:00,0,49283,0,0.00,0,0,0,0,43786,50000,1847,50000,0,0,0,0,0.00,0.00,0.00,0.00
2017-07-04 19:50:00,0,46507,6,0.47,0,0,0,0,32512,50000,6361,49884,0,61,18,0,0.00,4.75,1.43,0.00
2017-07-04 20:00:00,0,49394,0,0.00,0,0,0,0,43945,50000,1816,50000,0,0,0,0,0.00,0.00,0.00,0.00
2017-07-04 20:10:00,0,50000,0,0.00,0,0,0,0,50000,50000,0,50000,0,0,0,0,0.00,0.00,0.00,0.00
2017-07-04 20:20:00,0,49965,0,0.00,0,0,0,0,49648,50000,106,50000,0,0,0,0,0.00,0.00,0.00,0.00
2017-07-04 20:30:00,0,50000,0,0.00,0,0,0,0,50000,50000,0,50000,0,0,0,0,0.00,0.00,0.00,0.00
2017-07-04 20:40:00,0,50000,0,0.00,0,0,0,0,50000,50000,0,50000,0,0,0,0,0.00,0.00,0.00,0.00
2017-07-04 20:50:00,0,50000,0,0.00,0,0,0,0,50000,50000,0,50000,0,0,0,0,0.00,0.00,0.00,0.00
2017-07-04 21:00:00,0,49966,0,0.00,0,0,0,0,49661,50000,102,50000,0,0,0,0,0.00,0.00,0.00,0.00
2017-07-04 21:10:00,0,50000,0,0.00,0,0,0,0,50000,50000,0,50000,0,0,0,0,0.00,0.00,0.00,0.00
2017-07-04 21:20:00,0,50000,0,0.00,0,0,0,0,50000,50000,0,50000,0,0,0,0,0.00,0.00,0.00,0.00
2017-07-04 21:30:00,0,50000,0,0.00,0,0,0,0,50000,50000,0,50000,0,0,0,0,0.00,0.00,0.00,0.00
2017-07-04 21:40:00,0,50000,0,0.00,0,0,0,0,50000,50000,0,50000,0,0,0,0,0.00,0.00,0.00,0.00
2017-07-04 21:50:00,0,49930,0,0.00,0,0,0,0,49299,50000,210,50000,0,0,0,0,0.00,0.00,0.00,0.00
2017-07-04 22:00:00,0,49865,0,0.00,0,0,0,0,48646,50000,406,50000,0,0,0,0,0.00,0.00,0.00,0.00
2017-07-04 22:10:00,0,49105,0,0.00,0,2,1,0,42259,50000,2310,50000,0,0,0,0,0.00,0.00,0.00,0.00
2017-07-04 22:20:00,0,49424,0,0.00,0,2,1,0,45687,50000,1301,50000,0,0,0,0,0.00,0.00,0.00,0.00
2017-07-04 22:30:00,0,50000,0,0.00,0,0,0,0,50000,50000,0,50000,0,0,0,0,0.00,0.00,0.00,0.00
2017-07-04 22:40:00,0,49907,0,0.00,0,0,0,0,49071,50000,279,50000,0,0,0,0,0.00,0.00,0.00,0.00
2017-07-04 22:50:00,0,49744,0,0.00,0,0,0,0,47441,50000,768,50000,0,0,0,0,0.00,0.00,0.00,0.00
2017-07-04 23:00:00,0,49539,0,0.00,0,0,0,0,47235,50000,861,50000,0,0,0,0,0.00,0.00,0.00,0.00
2017-07-04 23:10:00,0,49921,0,0.00,0,2,1,0,49336,50000,199,50000,0,0,0,0,0.00,0.00,0.00,0.00
2017-07-04 23:20:00,0,49365,0,0.00,0,2,1,0,46003,50000,1322,50000,0,0,0,0,0.00,0.00,0.00,0.00
2017-07-04 23:30:00,2,48682,0,0.00,2,2,0,2,44908,50000,2032,50000,0,0,0,0,0.00,0.00,0.00,0.00
2017-07-04 23:40:00,1,44609,0,0.00,0,2,1,0,26469,50000,7249,48499,0,0,0,0,0.00,0.00,0.00,0.00
2017-07-04 23:50:00,0,48670,0,0.00,0,2,1,0,43078,50000,2418,50000,0,0,0,0,0.00,0.00,0.00,0.00
